Wiley Ford, WV

5:12 PM EDT on August 29, 2016 (GMT -0400)
Greater Cumberland Regional

Weather History for KCBE - March, 2013

Change the Weather History Date:

Monday, March 18, 2013

  Actual Average (KMRB) Record (KMRB)
Temperature  
Mean Temperature 34 °F 43 °F  
Max Temperature 35 °F 53 °F 83 °F (1927)
Min Temperature 32 °F 32 °F 12 °F (1941)
Degree Days  
Heating Degree Days 32 22  
Month to date heating degree days 455  
Since 1 July heating degree days 4411  
Cooling Degree Days 0 0  
Month to date cooling degree days 0  
Year to date cooling degree days 0  
Moisture  
Dew Point 31 °F    
Average Humidity 92    
Maximum Humidity 100    
Minimum Humidity 65    
Precipitation  
Precipitation 0.00 in 0.12 in 1.85 in (1936)
Month to date precipitation 1.92  
Year to date precipitation 6.70  
Sea Level Pressure  
Sea Level Pressure 30.14 in    
Wind  
Wind Speed 4 mph (SE)    
Max Wind Speed 12 mph    
Max Gust Speed 16 mph    
Visibility 6 miles    
Events      
T = Trace of Precipitation, MM = Missing Value Source: NWS Daily Summary

Daily Weather History Graph

Daily Weather History Graph

Search for Another Location

Airport or City:

Trip Planner

Search our weather history database for the weather conditions in past years. The results will help you decide how hot, cold, wet, or windy it might be!

Date:

Astronomy

Mar. 18, 2013 Rise Set
Actual Time 7:21 AM EDT 7:25 PM EDT
Civil Twilight 6:54 AM EDT 7:52 PM EDT
Nautical Twilight 6:23 AM EDT 8:23 PM EDT
Astronomical Twilight 5:51 AM EDT 8:55 PM EDT
Moon 11:20 AM EDT (3/18) 1:21 AM EDT (3/18)
Length of Visible Light 12h 57m
Length of Day
12h 03m
Waxing Crescent, 40% of the Moon is Illuminated
Mar 18
Waxing Crescent
Mar 19
First Quarter
Mar 27
Full
Apr 3
Last Quarter
Apr 10
New

Hourly Weather History & Observations

Time (EDT) Temp. Windchill Dew Point Humidity Pressure Visibility Wind Dir Wind Speed Gust Speed Precip Events Conditions
12:18 AM 35.6 °F - 24.8 °F 65% 30.26 in 10.0 mi Calm Calm - N/A   Scattered Clouds
12:38 AM 35.6 °F 32.8 °F 24.8 °F 65% 30.26 in 10.0 mi ESE 3.5 mph - N/A   Mostly Cloudy
12:58 AM 35.6 °F 32.8 °F 24.8 °F 65% 30.27 in 10.0 mi ESE 3.5 mph - N/A   Mostly Cloudy
1:18 AM 35.6 °F 32.8 °F 24.8 °F 65% 30.27 in 10.0 mi ESE 3.5 mph - N/A   Mostly Cloudy
1:38 AM 35.6 °F 30.7 °F 24.8 °F 65% 30.26 in 10.0 mi SE 5.8 mph - N/A   Overcast
1:59 AM 35.6 °F 32.8 °F 24.8 °F 65% 30.27 in 10.0 mi ESE 3.5 mph - N/A   Overcast
2:19 AM 35.6 °F 30.7 °F 24.8 °F 65% 30.27 in 10.0 mi ESE 5.8 mph - N/A   Scattered Clouds
2:39 AM 35.6 °F 30.7 °F 24.8 °F 65% 30.26 in 10.0 mi SSE 5.8 mph - N/A   Mostly Cloudy
2:59 AM 33.8 °F 29.6 °F 26.6 °F 75% 30.27 in 10.0 mi SSE 4.6 mph - N/A   Mostly Cloudy
3:19 AM 32.0 °F 25.6 °F 30.2 °F 93% 30.27 in 4.0 mi South 6.9 mph - N/A   Overcast
3:39 AM 32.0 °F 28.7 °F 30.2 °F 93% 30.27 in 2.0 mi South 3.5 mph - N/A   Overcast
3:59 AM 32.0 °F 28.7 °F 32.0 °F 100% 30.27 in 1.8 mi South 3.5 mph - N/A   Overcast
4:19 AM 32.0 °F - 32.0 °F 100% 30.27 in 1.0 mi Calm Calm - N/A   Overcast
4:39 AM 32.0 °F - 32.0 °F 100% 30.27 in 1.5 mi Calm Calm - N/A   Overcast
4:59 AM 32.0 °F - 32.0 °F 100% 30.27 in 1.0 mi Calm Calm - N/A   Overcast
5:19 AM 32.0 °F - 32.0 °F 100% 30.27 in 1.0 mi Calm Calm - N/A   Overcast
5:39 AM 32.0 °F - 32.0 °F 100% 30.27 in 0.8 mi Calm Calm - N/A   Overcast
5:59 AM 32.0 °F - 32.0 °F 100% 30.27 in 0.8 mi Calm Calm - N/A   Overcast
6:19 AM 32.0 °F - 32.0 °F 100% 30.29 in 0.8 mi Calm Calm - N/A   Overcast
6:39 AM 32.0 °F - 32.0 °F 100% 30.28 in 0.8 mi Calm Calm - N/A   Overcast
6:59 AM 32.0 °F - 32.0 °F 100% 30.28 in 1.5 mi Calm Calm - N/A   Overcast
7:19 AM 32.0 °F 26.4 °F 32.0 °F 100% 30.27 in 1.2 mi SE 5.8 mph - N/A   Overcast
7:39 AM 32.0 °F 27.5 °F 32.0 °F 100% 30.28 in 1.8 mi ESE 4.6 mph - N/A   Overcast
7:59 AM 32.0 °F 27.5 °F 32.0 °F 100% 30.27 in 3.0 mi SE 4.6 mph - N/A   Overcast
8:19 AM 32.0 °F 28.7 °F 30.2 °F 93% 30.27 in 3.0 mi SE 3.5 mph - N/A   Overcast
8:39 AM 32.0 °F 24.8 °F 30.2 °F 93% 30.26 in 4.0 mi SE 8.1 mph - N/A   Overcast
8:59 AM 32.0 °F 27.5 °F 30.2 °F 93% 30.25 in 10.0 mi SSE 4.6 mph - N/A   Mostly Cloudy
9:19 AM 32.0 °F 26.4 °F 30.2 °F 93% 30.25 in 10.0 mi SE 5.8 mph - N/A   Overcast
9:39 AM 32.0 °F 24.8 °F 30.2 °F 93% 30.24 in 10.0 mi SE 8.1 mph - N/A   Overcast
9:59 AM 32.0 °F 23.0 °F 30.2 °F 93% 30.22 in 10.0 mi ESE 11.5 mph 16.1 mph N/A   Overcast
10:19 AM 32.0 °F 23.6 °F 30.2 °F 93% 30.22 in 10.0 mi SSE 10.4 mph - N/A   Overcast
10:40 AM 32.0 °F 24.2 °F 30.2 °F 93% 30.20 in 10.0 mi SE 9.2 mph - N/A   Overcast
11:00 AM 32.0 °F 24.2 °F 30.2 °F 93% 30.20 in 10.0 mi SE 9.2 mph - N/A   Overcast
11:20 AM 32.0 °F 25.6 °F 30.2 °F 93% 30.21 in 10.0 mi SE 6.9 mph 11.5 mph N/A   Overcast
11:40 AM 32.0 °F 24.8 °F 30.2 °F 93% 30.21 in 10.0 mi SE 8.1 mph - N/A   Overcast
12:00 PM 32.0 °F 23.6 °F 30.2 °F 93% 30.20 in 10.0 mi ESE 10.4 mph - N/A   Overcast
12:20 PM 32.0 °F 24.8 °F 30.2 °F 93% 30.19 in 5.0 mi ESE 8.1 mph - N/A   Overcast
12:40 PM 32.0 °F 25.6 °F 30.2 °F 93% 30.18 in 4.0 mi ESE 6.9 mph - N/A   Overcast
1:00 PM 32.0 °F 26.4 °F 30.2 °F 93% 30.18 in 1.8 mi SE 5.8 mph - N/A   Overcast
1:20 PM 32.0 °F 25.6 °F 30.2 °F 93% 30.16 in 1.0 mi SE 6.9 mph - N/A   Overcast
1:40 PM 32.0 °F 28.7 °F 32.0 °F 100% 30.14 in 0.8 mi SSE 3.5 mph - N/A   Overcast
2:00 PM 32.0 °F 26.4 °F 32.0 °F 100% 30.12 in 1.0 mi SE 5.8 mph - N/A   Overcast
2:20 PM 32.0 °F 24.2 °F 32.0 °F 100% 30.11 in 1.2 mi SE 9.2 mph - N/A   Overcast
2:40 PM 32.0 °F 24.2 °F 32.0 °F 100% 30.09 in 1.2 mi SE 9.2 mph - N/A   Overcast
3:00 PM 32.0 °F 27.5 °F 32.0 °F 100% 30.10 in 1.0 mi SSE 4.6 mph - N/A   Overcast
3:20 PM 32.0 °F 28.7 °F 32.0 °F 100% 30.09 in 1.8 mi ESE 3.5 mph - N/A   Overcast
3:40 PM 32.0 °F 27.5 °F 32.0 °F 100% 30.08 in 3.0 mi ESE 4.6 mph - N/A   Overcast
4:00 PM 32.0 °F 26.4 °F 32.0 °F 100% 30.07 in 3.0 mi SE 5.8 mph - N/A   Overcast
4:20 PM 32.0 °F 27.5 °F 32.0 °F 100% 30.06 in 3.0 mi SE 4.6 mph - N/A   Overcast
4:40 PM 32.0 °F 25.6 °F 32.0 °F 100% 30.05 in 2.5 mi SE 6.9 mph - N/A   Overcast
5:00 PM 32.0 °F 24.2 °F 32.0 °F 100% 30.05 in 3.0 mi SE 9.2 mph - N/A   Overcast
5:20 PM 32.0 °F 24.8 °F 32.0 °F 100% 30.03 in 5.0 mi ESE 8.1 mph - N/A   Overcast
5:40 PM 32.0 °F 26.4 °F 32.0 °F 100% 30.01 in 10.0 mi ESE 5.8 mph - N/A   Overcast
6:00 PM 32.0 °F 26.4 °F 32.0 °F 100% 29.99 in 10.0 mi ESE 5.8 mph - N/A   Mostly Cloudy
6:20 PM 33.8 °F 26.4 °F 32.0 °F 93% 29.99 in 10.0 mi SE 9.2 mph - N/A   Overcast
6:40 PM 33.8 °F 28.6 °F 32.0 °F 93% 29.99 in 10.0 mi SE 5.8 mph - N/A   Overcast
7:00 PM 33.8 °F 28.6 °F 32.0 °F 93% 29.98 in 10.0 mi SE 5.8 mph - N/A   Overcast
7:21 PM 33.8 °F 30.8 °F 32.0 °F 93% 29.99 in 10.0 mi East 3.5 mph - N/A   Overcast
7:41 PM 33.8 °F 30.8 °F 32.0 °F 93% 29.98 in 10.0 mi East 3.5 mph - N/A   Overcast
8:01 PM 33.8 °F 27.7 °F 32.0 °F 93% 29.98 in 10.0 mi SE 6.9 mph - N/A   Overcast
8:21 PM 33.8 °F 28.6 °F 32.0 °F 93% 29.97 in 10.0 mi SE 5.8 mph - N/A   Overcast
8:41 PM 33.8 °F 30.8 °F 32.0 °F 93% 29.96 in 10.0 mi ESE 3.5 mph - N/A   Overcast
9:01 PM 33.8 °F 30.8 °F 32.0 °F 93% 29.95 in 10.0 mi SE 3.5 mph - N/A   Overcast
9:21 PM 33.8 °F 28.6 °F 32.0 °F 93% 29.94 in 10.0 mi SSE 5.8 mph - N/A   Overcast
9:41 PM 33.8 °F 30.8 °F 32.0 °F 93% 29.95 in 10.0 mi South 3.5 mph - N/A   Overcast
10:01 PM 33.8 °F 30.8 °F 32.0 °F 93% 29.93 in 10.0 mi South 3.5 mph - N/A   Overcast
10:21 PM 33.8 °F - 32.0 °F 93% 29.92 in 10.0 mi Calm Calm - N/A   Overcast
10:41 PM 33.8 °F 30.8 °F 32.0 °F 93% 29.92 in 10.0 mi South 3.5 mph - N/A   Overcast
11:01 PM 33.8 °F 30.8 °F 32.0 °F 93% 29.91 in 10.0 mi SSE 3.5 mph - N/A   Overcast
11:21 PM 33.8 °F - 32.0 °F 93% 29.91 in 10.0 mi Calm Calm - N/A   Overcast
11:41 PM 33.8 °F - 32.0 °F 93% 29.90 in 10.0 mi Calm Calm - N/A   Overcast